sat.trackr.live / text

‹ back to catalog

STARLINK-30870

NORAD 58369 · 2023-177U

PAYLOAD ACTIVE UNKNOWN

§ Identity

Operator
Country
US
Launch date
2023-11-18
Launch site
AFETR
Launch vehicle
Mass (kg)
RCS (m²)

Purposes: comms

External: N2YO · Heavens-Above · Gunter

§ Orbital elements

Epoch: 2026-09-20T11:20:34.973664Z

Period
94.27 min
Inclination
43.0026°
Eccentricity
0.0001105
Mean motion
15.27581655 rev/d
Perigee alt
482.3 km
Apogee alt
483.8 km
Semi-major
6,861.2 km
B*
3.8970e-5
RAAN
330.8536°
Arg perigee
268.7580°
Mean anomaly
91.3145°
Rev number
15,801

§ Raw data

STARLINK-308701 58369U 23177U   26263.47262701  .00000810  00000+0  38970-4 0  99982 58369  43.0026 330.8536 0001105 268.7580  91.3145 15.27581655158012

JSON: /api/v1/satellites/58369 · /tle

For live sub-satellite position, see the globe view (requires WebGL).

§ Visibility from observer

Set your observer location to see the next 7 days of passes ≥ 10°. The values pass through the URL so the page stays shareable.

No JS? Fill the form by hand. The geolocation button needs JavaScript.